| time (UTC) | temp F | wind direction | speed MPH | gust MPH | rain 1hr in | rain 24hr in | rain mn in | humidity % | barometer mb |
| 20260507201104 | 65 | 197 | 4.0 | 10.0 | 0.00 | 0.03 | 0.03 | 48 | 1005.7 |
| 20260507200608 | 66 | 187 | 4.0 | 10.0 | 0.00 | 0.03 | 0.03 | 48 | 1005.7 |
| 20260507200107 | 66 | 224 | 2.0 | 10.0 | 0.00 | 0.03 | 0.03 | 48 | 1005.6 |
| 20260507195607 | 66 | 190 | 2.0 | 8.0 | 0.00 | 0.03 | 0.03 | 46 | 1005.7 |
| 20260507195106 | 66 | 324 | 2.0 | 8.0 | 0.00 | 0.03 | 0.03 | 46 | 1005.6 |
| 20260507194559 | 65 | 217 | 2.0 | 8.0 | 0.00 | 0.03 | 0.03 | 47 | 1005.7 |
| 20260507194059 | 65 | 83 | 3.0 | 8.0 | 0.00 | 0.03 | 0.03 | 47 | 1005.7 |
| 20260507192600 | 65 | 158 | 3.0 | 8.0 | 0.00 | 0.03 | 0.03 | 48 | 1006.2 |
| 20260507191057 | 64 | 111 | 2.0 | 7.0 | 0.00 | 0.03 | 0.03 | 50 | 1006.3 |
| 20260507190557 | 64 | 181 | 1.0 | 7.0 | 0.00 | 0.03 | 0.03 | 48 | 1006.6 |
| 20260507190057 | 64 | 210 | 2.0 | 6.0 | 0.00 | 0.03 | 0.03 | 47 | 1006.8 |
| 20260507185058 | 64 | 165 | 3.0 | 7.0 | 0.00 | 0.03 | 0.03 | 47 | 1006.4 |
| 20260507184053 | 64 | 211 | 2.0 | 7.0 | 0.00 | 0.03 | 0.03 | 47 | 1006.6 |
| 20260507183555 | 63 | 260 | 2.0 | 8.0 | 0.00 | 0.03 | 0.03 | 47 | 1006.8 |
| 20260507183054 | 63 | 296 | 2.0 | 8.0 | 0.00 | 0.03 | 0.03 | 47 | 1006.9 |
| 20260507182554 | 63 | 253 | 1.0 | 5.0 | 0.00 | 0.03 | 0.03 | 46 | 1007.1 |
| 20260507182053 | 62 | 192 | 2.0 | 6.0 | 0.00 | 0.03 | 0.03 | 46 | 1006.9 |
| 20260507181552 | 63 | 93 | 1.0 | 6.0 | 0.00 | 0.03 | 0.03 | 44 | 1007.0 |
| 20260507181048 | 63 | 211 | 0.0 | 5.0 | 0.00 | 0.03 | 0.03 | 45 | 1007.3 |
| 20260507180546 | 62 | 64 | 1.0 | 3.0 | 0.00 | 0.03 | 0.03 | 47 | 1007.2 |
| 20260507180046 | 62 | 32 | 1.0 | 4.0 | 0.00 | 0.03 | 0.03 | 46 | 1007.3 |
| 20260507175546 | 62 | 266 | 1.0 | 4.0 | 0.00 | 0.03 | 0.03 | 46 | 1007.2 |
| 20260507175045 | 62 | 23 | 1.0 | 6.0 | 0.00 | 0.03 | 0.03 | 47 | 1007.2 |
| 20260507174548 | 61 | 319 | 1.0 | 6.0 | 0.00 | 0.03 | 0.03 | 46 | 1007.3 |
| 20260507174042 | 61 | 13 | 1.0 | 4.0 | 0.00 | 0.03 | 0.03 | 48 | 1007.3 |
| 20260507173040 | 60 | 101 | 1.0 | 3.0 | 0.00 | 0.03 | 0.03 | 49 | 1008.0 |
| 20260507172540 | 60 | 98 | 1.0 | 4.0 | 0.00 | 0.03 | 0.03 | 48 | 1007.9 |
| 20260507172040 | 60 | 89 | 0.0 | 4.0 | 0.00 | 0.03 | 0.03 | 48 | 1008.1 |
| 20260507171540 | 60 | 200 | 0.0 | 2.0 | 0.00 | 0.03 | 0.03 | 51 | 1007.9 |
| 20260507171039 | 60 | 94 | 0.0 | 2.0 | 0.00 | 0.03 | 0.03 | 50 | 1008.1 |
| 20260507170036 | 60 | 93 | 1.0 | 5.0 | 0.00 | 0.03 | 0.03 | 49 | 1008.6 |
| 20260507165537 | 60 | 51 | 2.0 | 4.0 | 0.00 | 0.03 | 0.03 | 50 | 1008.2 |
| 20260507165034 | 60 | 69 | 3.0 | 6.0 | 0.00 | 0.03 | 0.03 | 50 | 1008.2 |
| 20260507164534 | 60 | 36 | 2.0 | 6.0 | 0.00 | 0.03 | 0.03 | 51 | 1008.3 |
| 20260507164029 | 60 | 97 | 1.0 | 5.0 | 0.00 | 0.03 | 0.03 | 52 | 1008.4 |
| 20260507163527 | 60 | 348 | 2.0 | 7.0 | 0.00 | 0.03 | 0.03 | 50 | 1008.5 |
| 20260507163024 | 61 | 63 | 2.0 | 7.0 | 0.00 | 0.03 | 0.03 | 51 | 1008.6 |
| 20260507162522 | 60 | 25 | 1.0 | 5.0 | 0.00 | 0.03 | 0.03 | 51 | 1008.6 |
| 20260507162022 | 60 | 63 | 1.0 | 5.0 | 0.00 | 0.03 | 0.03 | 53 | 1008.8 |
| 20260507161516 | 59 | 163 | 2.0 | 6.0 | 0.00 | 0.03 | 0.03 | 55 | 1008.7 |
| 20260507160515 | 59 | 111 | 2.0 | 8.0 | 0.00 | 0.03 | 0.03 | 53 | 1008.8 |
| 20260507160016 | 60 | 55 | 1.0 | 4.0 | 0.00 | 0.03 | 0.03 | 55 | 1008.9 |
| 20260507155516 | 59 | 201 | 1.0 | 3.0 | 0.00 | 0.03 | 0.03 | 53 | 1009.0 |
| 20260507154010 | 58 | 24 | 1.0 | 4.0 | 0.00 | 0.03 | 0.03 | 55 | 1009.2 |
| 20260507153512 | 58 | 96 | 1.0 | 5.0 | 0.00 | 0.03 | 0.03 | 55 | 1009.2 |
| 20260507153013 | 58 | 346 | 2.0 | 6.0 | 0.00 | 0.03 | 0.03 | 54 | 1009.2 |
| 20260507152010 | 57 | 60 | 2.0 | 5.0 | 0.00 | 0.04 | 0.03 | 54 | 1009.1 |
| 20260507151508 | 57 | 68 | 2.0 | 8.0 | 0.00 | 0.05 | 0.03 | 53 | 1009.1 |
| 20260507151006 | 57 | 26 | 4.0 | 8.0 | 0.00 | 0.06 | 0.03 | 52 | 1009.3 |
| 20260507150506 | 57 | 46 | 3.0 | 9.0 | 0.00 | 0.06 | 0.03 | 53 | 1009.3 |
| 20260507150006 | 57 | 82 | 2.0 | 9.0 | 0.00 | 0.06 | 0.03 | 54 | 1009.4 |
| 20260507145504 | 57 | 85 | 1.0 | 6.0 | 0.00 | 0.07 | 0.03 | 56 | 1009.5 |
| 20260507144457 | 57 | 32 | 2.0 | 6.0 | 0.00 | 0.08 | 0.03 | 58 | 1009.6 |
| 20260507143957 | 56 | 22 | 1.0 | 6.0 | 0.00 | 0.08 | 0.03 | 58 | 1009.6 |
| 20260507143457 | 57 | 86 | 1.0 | 4.0 | 0.00 | 0.08 | 0.03 | 59 | 1009.7 |
| 20260507142959 | 57 | 110 | 1.0 | 4.0 | 0.00 | 0.09 | 0.03 | 61 | 1009.8 |
| 20260507142459 | 56 | 74 | 2.0 | 5.0 | 0.00 | 0.09 | 0.03 | 63 | 1009.7 |
| 20260507141959 | 56 | 82 | 2.0 | 5.0 | 0.00 | 0.10 | 0.03 | 63 | 1009.7 |
| 20260507141453 | 56 | 117 | 1.0 | 5.0 | 0.00 | 0.11 | 0.03 | 62 | 1009.8 |
| 20260507140454 | 56 | 60 | 2.0 | 5.0 | 0.00 | 0.14 | 0.03 | 63 | 1009.7 |
| 20260507135954 | 56 | 23 | 1.0 | 5.0 | 0.00 | 0.15 | 0.03 | 62 | 1009.8 |
| 20260507135452 | 56 | 80 | 1.0 | 3.0 | 0.00 | 0.15 | 0.03 | 62 | 1009.8 |
| 20260507134952 | 56 | 95 | 1.0 | 4.0 | 0.00 | 0.17 | 0.03 | 61 | 1010.0 |
| 20260507134445 | 56 | 103 | 2.0 | 5.0 | 0.00 | 0.18 | 0.03 | 62 | 1009.9 |
| 20260507133945 | 56 | 77 | 2.0 | 5.0 | 0.00 | 0.19 | 0.03 | 60 | 1010.0 |
| 20260507133448 | 56 | 57 | 2.0 | 5.0 | 0.00 | 0.20 | 0.03 | 60 | 1010.1 |
| 20260507132947 | 56 | 72 | 2.0 | 5.0 | 0.00 | 0.21 | 0.03 | 59 | 1010.1 |
| 20260507132446 | 56 | 68 | 2.0 | 9.0 | 0.00 | 0.22 | 0.03 | 59 | 1009.9 |
| 20260507130944 | 56 | 41 | 2.0 | 7.0 | 0.00 | 0.22 | 0.03 | 59 | 1009.9 |
| 20260507125944 | 56 | 23 | 4.0 | 11.0 | 0.00 | 0.23 | 0.03 | 58 | 1009.6 |
| 20260507125443 | 56 | 9 | 3.0 | 10.0 | 0.00 | 0.23 | 0.03 | 58 | 1009.6 |
| 20260507124943 | 56 | 56 | 4.0 | 9.0 | 0.00 | 0.23 | 0.03 | 58 | 1009.8 |
| 20260507124446 | 56 | 24 | 3.0 | 8.0 | 0.00 | 0.23 | 0.03 | 58 | 1009.8 |
| 20260507123938 | 56 | 71 | 3.0 | 7.0 | 0.00 | 0.23 | 0.03 | 58 | 1009.9 |
| 20260507123437 | 56 | 4 | 3.0 | 8.0 | 0.00 | 0.23 | 0.03 | 59 | 1010.1 |
| 20260507122434 | 56 | 17 | 2.0 | 10.0 | 0.00 | 0.23 | 0.03 | 60 | 1009.8 |
| 20260507121935 | 57 | 24 | 2.0 | 7.0 | 0.00 | 0.23 | 0.03 | 63 | 1009.7 |
| 20260507121434 | 56 | 23 | 3.0 | 9.0 | 0.00 | 0.23 | 0.03 | 63 | 1009.7 |
| 20260507120928 | 56 | 29 | 4.0 | 9.0 | 0.00 | 0.23 | 0.03 | 63 | 1009.5 |
| 20260507120428 | 56 | 0 | 3.0 | 11.0 | 0.00 | 0.23 | 0.03 | 64 | 1009.7 |
| 20260507115926 | 56 | 24 | 3.0 | 11.0 | 0.00 | 0.23 | 0.03 | 66 | 1009.7 |
| 20260507115427 | 56 | 294 | 3.0 | 10.0 | 0.00 | 0.23 | 0.03 | 70 | 1009.6 |
| 20260507114927 | 56 | 91 | 5.0 | 12.0 | 0.00 | 0.23 | 0.03 | 71 | 1009.4 |
| 20260507114428 | 56 | 40 | 3.0 | 12.0 | 0.00 | 0.23 | 0.03 | 73 | 1009.3 |
| 20260507113928 | 57 | 23 | 0.0 | 3.0 | 0.00 | 0.23 | 0.03 | 78 | 1009.3 |
| 20260507113424 | 57 | 359 | 0.0 | 3.0 | 0.00 | 0.23 | 0.03 | 79 | 1009.4 |
| 20260507112924 | 56 | 332 | 1.0 | 5.0 | 0.00 | 0.23 | 0.03 | 80 | 1009.5 |
| 20260507112422 | 56 | 83 | 1.0 | 5.0 | 0.00 | 0.23 | 0.03 | 80 | 1009.5 |
| 20260507111922 | 56 | 281 | 1.0 | 5.0 | 0.00 | 0.23 | 0.03 | 81 | 1009.3 |
| 20260507111421 | 56 | 34 | 1.0 | 5.0 | 0.00 | 0.23 | 0.03 | 81 | 1009.3 |
| 20260507110920 | 56 | 86 | 1.0 | 6.0 | 0.00 | 0.23 | 0.03 | 81 | 1009.1 |
| 20260507110413 | 56 | 34 | 1.0 | 6.0 | 0.00 | 0.23 | 0.03 | 82 | 1009.2 |
| 20260507105912 | 56 | 68 | 0.0 | 2.0 | 0.00 | 0.23 | 0.03 | 83 | 1009.3 |
| 20260507105411 | 56 | 8 | 0.0 | 3.0 | 0.00 | 0.23 | 0.03 | 83 | 1009.2 |
| 20260507104910 | 56 | 79 | 1.0 | 4.0 | 0.00 | 0.23 | 0.03 | 83 | 1009.0 |
| 20260507103907 | 56 | 44 | 1.0 | 4.0 | 0.00 | 0.23 | 0.03 | 82 | 1009.0 |
| 20260507103404 | 56 | 94 | 1.0 | 6.0 | 0.00 | 0.23 | 0.03 | 83 | 1009.0 |
| 20260507102902 | 56 | 46 | 2.0 | 6.0 | 0.00 | 0.23 | 0.03 | 83 | 1008.9 |
| 20260507102405 | 56 | 46 | 2.0 | 6.0 | 0.00 | 0.23 | 0.03 | 83 | 1008.9 |
| 20260507101905 | 56 | 41 | 2.0 | 5.0 | 0.00 | 0.23 | 0.03 | 83 | 1008.8 |
| 20260507101404 | 56 | 71 | 2.0 | 7.0 | 0.00 | 0.23 | 0.03 | 83 | 1008.7 |
| 20260507100904 | 56 | 76 | 2.0 | 7.0 | 0.00 | 0.23 | 0.03 | 83 | 1008.8 |
| 20260507095400 | 56 | 91 | 1.0 | 3.0 | 0.00 | 0.23 | 0.03 | 83 | 1008.7 |
| 20260507094359 | 56 | 23 | 1.0 | 4.0 | 0.00 | 0.23 | 0.03 | 83 | 1008.7 |
| 20260507093858 | 56 | 11 | 2.0 | 7.0 | 0.00 | 0.23 | 0.03 | 83 | 1008.7 |
| 20260507092359 | 56 | 88 | 2.0 | 8.0 | 0.00 | 0.23 | 0.03 | 83 | 1008.3 |
| 20260507091900 | 56 | 97 | 1.0 | 6.0 | 0.00 | 0.23 | 0.03 | 83 | 1008.5 |
| 20260507091359 | 56 | 36 | 2.0 | 6.0 | 0.00 | 0.23 | 0.03 | 83 | 1008.6 |
| 20260507090856 | 56 | 19 | 2.0 | 7.0 | 0.00 | 0.23 | 0.03 | 83 | 1008.7 |
| 20260507090358 | 56 | 110 | 2.0 | 7.0 | 0.00 | 0.23 | 0.03 | 83 | 1008.6 |
| 20260507085852 | 56 | 60 | 2.0 | 6.0 | 0.00 | 0.23 | 0.03 | 83 | 1008.6 |
| 20260507085346 | 56 | 86 | 2.0 | 9.0 | 0.00 | 0.23 | 0.03 | 83 | 1008.6 |
| 20260507084841 | 56 | 97 | 3.0 | 9.0 | 0.00 | 0.23 | 0.03 | 83 | 1008.4 |
| 20260507084340 | 56 | 46 | 2.0 | 7.0 | 0.00 | 0.23 | 0.03 | 83 | 1008.3 |
| 20260507083842 | 57 | 27 | 2.0 | 9.0 | 0.00 | 0.23 | 0.03 | 84 | 1008.4 |
| 20260507083341 | 57 | 99 | 3.0 | 9.0 | 0.00 | 0.23 | 0.03 | 84 | 1008.6 |
| 20260507082840 | 57 | 8 | 2.0 | 9.0 | 0.00 | 0.23 | 0.03 | 85 | 1008.5 |
| 20260507082343 | 57 | 20 | 1.0 | 9.0 | 0.00 | 0.23 | 0.03 | 86 | 1008.3 |
| 20260507081842 | 57 | 103 | 1.0 | 3.0 | 0.00 | 0.23 | 0.03 | 86 | 1008.2 |
| 20260507080829 | 57 | 70 | 1.0 | 4.0 | 0.00 | 0.23 | 0.03 | 86 | 1007.9 |
| 20260507080325 | 57 | 38 | 2.0 | 7.0 | 0.00 | 0.23 | 0.03 | 85 | 1007.8 |
| 20260507075327 | 57 | 62 | 3.0 | 8.0 | 0.00 | 0.23 | 0.03 | 85 | 1007.7 |
| 20260507074825 | 57 | 24 | 3.0 | 8.0 | 0.00 | 0.23 | 0.03 | 85 | 1007.7 |
| 20260507074325 | 58 | 43 | 2.0 | 8.0 | 0.00 | 0.23 | 0.03 | 84 | 1007.7 |
| 20260507073827 | 58 | 49 | 2.0 | 8.0 | 0.00 | 0.23 | 0.03 | 83 | 1007.5 |
| 20260507073320 | 58 | 79 | 2.0 | 9.0 | 0.00 | 0.23 | 0.03 | 83 | 1007.5 |
| 20260507072814 | 58 | 336 | 3.0 | 11.0 | 0.00 | 0.23 | 0.03 | 82 | 1007.4 |
| 20260507072314 | 58 | 64 | 3.0 | 11.0 | 0.00 | 0.23 | 0.03 | 84 | 1007.5 |
| 20260507071815 | 58 | 18 | 3.0 | 8.0 | 0.00 | 0.23 | 0.03 | 85 | 1007.5 |
| 20260507071315 | 58 | 70 | 3.0 | 8.0 | 0.00 | 0.23 | 0.03 | 86 | 1007.5 |
| 20260507070816 | 58 | 32 | 2.0 | 8.0 | 0.00 | 0.23 | 0.03 | 86 | 1007.4 |
| 20260507070316 | 58 | 31 | 1.0 | 6.0 | 0.00 | 0.23 | 0.03 | 87 | 1007.5 |
| 20260507065810 | 58 | 53 | 1.0 | 8.0 | 0.01 | 0.23 | 0.03 | 88 | 1007.4 |
| 20260507065310 | 58 | 65 | 2.0 | 8.0 | 0.01 | 0.23 | 0.03 | 88 | 1007.3 |
| 20260507064812 | 58 | 65 | 2.0 | 6.0 | 0.01 | 0.23 | 0.03 | 89 | 1007.5 |
| 20260507064312 | 58 | 333 | 2.0 | 8.0 | 0.01 | 0.23 | 0.03 | 89 | 1007.5 |
| 20260507063810 | 58 | 32 | 2.0 | 8.0 | 0.01 | 0.23 | 0.03 | 89 | 1007.6 |
| 20260507063312 | 58 | 113 | 1.0 | 5.0 | 0.01 | 0.23 | 0.03 | 89 | 1007.5 |
| 20260507062806 | 58 | 340 | 2.0 | 9.0 | 0.01 | 0.23 | 0.03 | 89 | 1007.4 |
| 20260507062308 | 58 | 329 | 2.0 | 9.0 | 0.01 | 0.23 | 0.03 | 89 | 1007.3 |
| 20260507061807 | 58 | 69 | 3.0 | 8.0 | 0.01 | 0.23 | 0.03 | 89 | 1007.2 |
| 20260507060808 | 59 | 12 | 1.0 | 9.0 | 0.01 | 0.23 | 0.03 | 88 | 1007.3 |
| 20260507060310 | 59 | 91 | 1.0 | 5.0 | 0.01 | 0.23 | 0.03 | 88 | 1007.2 |
| 20260507055804 | 59 | 23 | 1.0 | 5.0 | 0.00 | 0.22 | 0.02 | 87 | 1007.5 |
| 20260507055306 | 59 | 71 | 1.0 | 4.0 | 0.00 | 0.22 | 0.02 | 87 | 1007.5 |
| 20260507054817 | 60 | 346 | 2.0 | 10.0 | 0.00 | 0.22 | 0.02 | 86 | 1007.5 |
| 20260507054303 | 60 | 23 | 3.0 | 10.0 | 0.01 | 0.22 | 0.02 | 85 | 1007.3 |
| 20260507053802 | 60 | 32 | 3.0 | 9.0 | 0.01 | 0.22 | 0.02 | 86 | 1007.5 |
| 20260507053304 | 60 | 32 | 2.0 | 9.0 | 0.02 | 0.22 | 0.02 | 86 | 1007.6 |
| 20260507052300 | 60 | 12 | 2.0 | 6.0 | 0.02 | 0.22 | 0.02 | 85 | 1007.1 |
| 20260507051759 | 60 | 91 | 1.0 | 5.0 | 0.02 | 0.22 | 0.02 | 84 | 1006.8 |
| 20260507051258 | 60 | 53 | 1.0 | 5.0 | 0.02 | 0.22 | 0.02 | 84 | 1007.2 |
| 20260507050759 | 61 | 85 | 1.0 | 5.0 | 0.02 | 0.22 | 0.02 | 84 | 1007.5 |
| 20260507050259 | 61 | 27 | 1.0 | 7.0 | 0.02 | 0.22 | 0.02 | 83 | 1007.7 |
| 20260507045754 | 61 | 345 | 1.0 | 7.0 | 0.02 | 0.22 | 0.02 | 82 | 1007.6 |
| 20260507045255 | 61 | 309 | 1.0 | 4.0 | 0.02 | 0.22 | 0.02 | 82 | 1007.5 |
| 20260507044755 | 62 | 311 | 0.0 | 4.0 | 0.02 | 0.22 | 0.02 | 80 | 1007.7 |
| 20260507044255 | 62 | 76 | 1.0 | 6.0 | 0.01 | 0.21 | 0.01 | 79 | 1007.3 |
| 20260507043754 | 62 | 76 | 2.0 | 6.0 | 0.01 | 0.21 | 0.01 | 78 | 1007.5 |
| 20260507042750 | 63 | 300 | 2.0 | 7.0 | 0.00 | 0.20 | 0.00 | 75 | 1007.7 |
| 20260507042251 | 63 | 24 | 3.0 | 10.0 | 0.00 | 0.20 | 0.00 | 74 | 1007.5 |
| 20260507041752 | 63 | 43 | 2.0 | 10.0 | 0.00 | 0.20 | 0.00 | 77 | 1007.5 |
| 20260507041252 | 63 | 37 | 1.0 | 5.0 | 0.00 | 0.20 | 0.00 | 81 | 1007.6 |
| 20260507040750 | 63 | 65 | 1.0 | 5.0 | 0.00 | 0.20 | 0.00 | 81 | 1007.3 |
| 20260507040252 | 63 | 324 | 1.0 | 6.0 | 0.00 | 0.20 | 0.00 | 81 | 1007.3 |
| 20260507035745 | 64 | 24 | 2.0 | 6.0 | 0.00 | 0.20 | 0.20 | 81 | 1007.1 |
| 20260507035247 | 64 | 348 | 3.0 | 7.0 | 0.00 | 0.20 | 0.20 | 80 | 1006.9 |
| 20260507034746 | 65 | 350 | 3.0 | 7.0 | 0.00 | 0.20 | 0.20 | 79 | 1007.1 |
| 20260507034248 | 65 | 5 | 4.0 | 10.0 | 0.00 | 0.20 | 0.20 | 77 | 1007.1 |
| 20260507033745 | 65 | 29 | 3.0 | 11.0 | 0.00 | 0.20 | 0.20 | 75 | 1007.1 |
| 20260507033247 | 66 | 11 | 2.0 | 11.0 | 0.00 | 0.20 | 0.20 | 74 | 1007.2 |
| 20260507032742 | 66 | 82 | 1.0 | 4.0 | 0.00 | 0.20 | 0.20 | 73 | 1006.9 |
| 20260507032242 | 66 | 342 | 1.0 | 6.0 | 0.00 | 0.20 | 0.20 | 73 | 1007.0 |
| 20260507031745 | 66 | 340 | 2.0 | 7.0 | 0.00 | 0.20 | 0.20 | 73 | 1006.9 |
| 20260507031243 | 66 | 322 | 2.0 | 9.0 | 0.00 | 0.20 | 0.20 | 72 | 1006.6 |
| 20260507030741 | 66 | 339 | 3.0 | 9.0 | 0.00 | 0.20 | 0.20 | 73 | 1006.4 |
| 20260507025737 | 66 | 53 | 3.0 | 10.0 | 0.00 | 0.20 | 0.20 | 75 | 1006.5 |
| 20260507025238 | 66 | 341 | 4.0 | 11.0 | 0.00 | 0.20 | 0.20 | 75 | 1006.6 |
| 20260507024738 | 67 | 30 | 5.0 | 11.0 | 0.00 | 0.20 | 0.20 | 75 | 1006.7 |
| 20260507024237 | 67 | 49 | 4.0 | 14.0 | 0.00 | 0.20 | 0.20 | 76 | 1006.6 |
| 20260507023735 | 67 | 15 | 3.0 | 14.0 | 0.00 | 0.20 | 0.20 | 76 | 1006.4 |
| 20260507022731 | 68 | 31 | 3.0 | 9.0 | 0.00 | 0.20 | 0.20 | 77 | 1006.1 |
| 20260507022233 | 68 | 24 | 4.0 | 9.0 | 0.00 | 0.20 | 0.20 | 78 | 1006.1 |
| 20260507021730 | 68 | 1 | 4.0 | 9.0 | 0.00 | 0.20 | 0.20 | 78 | 1006.3 |
| 20260507021231 | 68 | 11 | 4.0 | 10.0 | 0.00 | 0.20 | 0.20 | 78 | 1006.1 |
| 20260507020731 | 68 | 37 | 3.0 | 10.0 | 0.00 | 0.20 | 0.20 | 79 | 1006.0 |
| 20260507020230 | 69 | 41 | 2.0 | 8.0 | 0.00 | 0.20 | 0.20 | 81 | 1005.9 |
| 20260507015728 | 70 | 62 | 1.0 | 7.0 | 0.00 | 0.20 | 0.20 | 80 | 1005.9 |
| 20260507015228 | 70 | 327 | 1.0 | 6.0 | 0.00 | 0.20 | 0.20 | 79 | 1005.9 |
| 20260507014225 | 70 | 250 | 0.0 | 0.0 | 0.00 | 0.20 | 0.20 | 79 | 1005.8 |
| 20260507013725 | 70 | 250 | 0.0 | 0.0 | 0.00 | 0.20 | 0.20 | 79 | 1005.9 |
| 20260507013218 | 70 | 251 | 1.0 | 3.0 | 0.00 | 0.20 | 0.20 | 79 | 1006.0 |
| 20260507012716 | 70 | 210 | 1.0 | 4.0 | 0.00 | 0.20 | 0.20 | 79 | 1005.9 |
| 20260507012215 | 70 | 209 | 1.0 | 4.0 | 0.00 | 0.20 | 0.20 | 78 | 1006.1 |
| 20260507011715 | 70 | 214 | 0.0 | 2.0 | 0.00 | 0.20 | 0.20 | 78 | 1006.1 |
| 20260507011216 | 70 | 229 | 0.0 | 1.0 | 0.00 | 0.20 | 0.20 | 78 | 1006.1 |
| 20260507010711 | 70 | 233 | 0.0 | 1.0 | 0.00 | 0.20 | 0.20 | 78 | 1006.2 |
| 20260507010213 | 70 | 229 | 0.0 | 2.0 | 0.00 | 0.20 | 0.20 | 78 | 1006.2 |
| 20260507005713 | 70 | 235 | 1.0 | 4.0 | 0.00 | 0.20 | 0.20 | 78 | 1006.1 |
| 20260507005211 | 70 | 225 | 1.0 | 4.0 | 0.00 | 0.20 | 0.20 | 78 | 1006.0 |
| 20260507004210 | 70 | 217 | 0.0 | 2.0 | 0.00 | 0.20 | 0.20 | 79 | 1005.8 |
| 20260507003709 | 70 | 207 | 0.0 | 2.0 | 0.00 | 0.20 | 0.20 | 79 | 1005.8 |
| 20260507003209 | 70 | 204 | 0.0 | 2.0 | 0.00 | 0.20 | 0.20 | 79 | 1005.9 |
| 20260507002201 | 70 | 221 | 0.0 | 2.0 | 0.00 | 0.20 | 0.20 | 78 | 1005.7 |
| 20260507001701 | 70 | 212 | 0.0 | 2.0 | 0.00 | 0.20 | 0.20 | 78 | 1005.6 |
| 20260507001158 | 70 | 248 | 0.0 | 3.0 | 0.00 | 0.20 | 0.20 | 78 | 1005.6 |
| 20260507000659 | 70 | 212 | 0.0 | 3.0 | 0.00 | 0.20 | 0.20 | 78 | 1005.6 |
| 20260507000158 | 70 | 296 | 0.0 | 4.0 | 0.00 | 0.20 | 0.20 | 78 | 1005.7 |
| 20260506235655 | 70 | 309 | 0.0 | 4.0 | 0.00 | 0.20 | 0.20 | 78 | 1005.6 |
| 20260506235153 | 70 | 200 | 1.0 | 4.0 | 0.00 | 0.20 | 0.20 | 78 | 1005.5 |
| 20260506234152 | 70 | 228 | 1.0 | 5.0 | 0.00 | 0.20 | 0.20 | 78 | 1005.3 |
| 20260506233649 | 70 | 215 | 0.0 | 5.0 | 0.00 | 0.20 | 0.20 | 78 | 1005.3 |
| 20260506233150 | 70 | 204 | 1.0 | 6.0 | 0.00 | 0.20 | 0.20 | 78 | 1005.3 |
| 20260506232149 | 70 | 188 | 2.0 | 6.0 | 0.00 | 0.20 | 0.20 | 78 | 1005.3 |
| 20260506231646 | 70 | 222 | 2.0 | 5.0 | 0.00 | 0.20 | 0.20 | 78 | 1005.1 |
| 20260506231145 | 70 | 203 | 2.0 | 6.0 | 0.00 | 0.20 | 0.20 | 77 | 1005.1 |
| 20260506230641 | 70 | 257 | 1.0 | 6.0 | 0.00 | 0.20 | 0.20 | 78 | 1005.2 |
| 20260506230142 | 70 | 174 | 2.0 | 8.0 | 0.00 | 0.20 | 0.20 | 77 | 1005.0 |
| 20260506225643 | 70 | 207 | 3.0 | 8.0 | 0.00 | 0.20 | 0.20 | 77 | 1004.9 |
| 20260506224643 | 70 | 180 | 3.0 | 7.0 | 0.00 | 0.20 | 0.20 | 78 | 1005.0 |
| 20260506223636 | 70 | 172 | 4.0 | 9.0 | 0.00 | 0.20 | 0.20 | 77 | 1005.1 |
| 20260506223135 | 71 | 245 | 4.0 | 13.0 | 0.00 | 0.20 | 0.20 | 76 | 1005.1 |
| 20260506222633 | 71 | 238 | 4.0 | 13.0 | 0.00 | 0.20 | 0.20 | 76 | 1004.8 |
| 20260506222132 | 71 | 219 | 3.0 | 10.0 | 0.00 | 0.20 | 0.20 | 76 | 1004.9 |
| 20260506221125 | 71 | 177 | 5.0 | 11.0 | 0.00 | 0.20 | 0.20 | 76 | 1005.0 |
| 20260506220127 | 71 | 206 | 4.0 | 12.0 | 0.00 | 0.20 | 0.20 | 76 | 1004.9 |
| 20260506215625 | 71 | 260 | 3.0 | 11.0 | 0.00 | 0.20 | 0.20 | 76 | 1005.0 |
| 20260506215126 | 71 | 173 | 4.0 | 13.0 | 0.00 | 0.20 | 0.20 | 76 | 1004.9 |
| 20260506214626 | 71 | 235 | 5.0 | 13.0 | 0.00 | 0.20 | 0.20 | 76 | 1005.0 |
| 20260506214127 | 71 | 205 | 5.0 | 14.0 | 0.00 | 0.20 | 0.20 | 76 | 1005.1 |
| 20260506213619 | 71 | 153 | 4.0 | 14.0 | 0.00 | 0.20 | 0.20 | 75 | 1005.1 |
| 20260506213119 | 71 | 204 | 3.0 | 14.0 | 0.00 | 0.20 | 0.20 | 76 | 1005.0 |
| 20260506212619 | 71 | 263 | 6.0 | 16.0 | 0.00 | 0.20 | 0.20 | 76 | 1005.0 |
| 20260506212120 | 71 | 177 | 6.0 | 16.0 | 0.00 | 0.20 | 0.20 | 75 | 1004.8 |
| 20260506211120 | 71 | 179 | 4.0 | 11.0 | 0.00 | 0.20 | 0.20 | 75 | 1004.9 |
| 20260506210620 | 71 | 203 | 4.0 | 11.0 | 0.00 | 0.20 | 0.20 | 75 | 1004.7 |
| 20260506210115 | 71 | 204 | 5.0 | 13.0 | 0.00 | 0.20 | 0.20 | 75 | 1004.6 |
| 20260506205615 | 71 | 153 | 5.0 | 13.0 | 0.00 | 0.20 | 0.20 | 75 | 1004.6 |
| 20260506205114 | 71 | 187 | 5.0 | 13.0 | 0.00 | 0.20 | 0.20 | 75 | 1004.7 |
| 20260506204613 | 71 | 221 | 4.0 | 10.0 | 0.00 | 0.20 | 0.20 | 75 | 1004.6 |
| 20260506204113 | 71 | 333 | 5.0 | 11.0 | 0.00 | 0.20 | 0.20 | 75 | 1004.6 |
| 20260506203613 | 71 | 250 | 5.0 | 12.0 | 0.00 | 0.20 | 0.20 | 75 | 1004.4 |
| 20260506203114 | 71 | 359 | 5.0 | 12.0 | 0.00 | 0.20 | 0.20 | 75 | 1004.5 |
| 20260506202610 | 71 | 219 | 5.0 | 12.0 | 0.00 | 0.20 | 0.20 | 74 | 1004.6 |
| 20260506202110 | 71 | 201 | 4.0 | 14.0 | 0.00 | 0.20 | 0.20 | 75 | 1004.6 |
| 20260506201609 | 71 | 243 | 5.0 | 14.0 | 0.00 | 0.20 | 0.20 | 76 | 1004.5 |